Find Starlink 31089

NORAD ID: 58610 Int'l Des: 2023-200 Owner: SPXS Country: US Constellation: starlink operational
LEOCIRCULAR

当前视图

正在加载3D地球...

About Starlink 31089

Starlink 31089 (NORAD 58610) is a starlink constellation satellite (v2 mini) launched Dec 19, 2023 by SPXS of US. It operates in LEO, CIRCULAR orbit with a mass of 730.00 kg.

即将过境

Passes for default location (London). Set your location on the main map for personalized predictions.

高度历史

Loading altitude history...

两行轨道根数

1 58610U 23200X 26235.59708717 .00001859 00000-0 77106-4 0 9997
2 58610 43.0055 306.4937 0001790 269.5074 90.5572 15.27571002149137
Epoch: Aug 23, 2026 • Age: 11 hours

当前状态

高度 486.7 km
远地点 / 近地点 N/A
速度 7.62 km/s
星下点 -19.36°S, 68.24°W
发射日期 Dec 19, 2023
运行时间 2.6 years
类型 internet

技术详情

分类 Payload
质量 730.00 kg
干质量 700.00 kg
总质量 730.00 kg
长度 0.30 m
直径 4.10 m
跨度 29.00 m
形状 Box + pan
制造商 SPXS
平台类型 Starlink V2M
阶段状态 In Orbit
所有者/国家 SPXS/US

Most Searched